Cloquet, MN

8:02 AM CDT on August 23, 2017 (GMT -0500)
Cloquet Carlton County

Weather History for KCOQ - July, 2013

Change the Weather History Date:

Sunday, July 7, 2013

  Actual Average Record
Temperature  
Mean Temperature 60 °F -  
Max Temperature 68 °F 73 °F 87 °F (2007)
Min Temperature 53 °F 51 °F 39 °F (1997)
Degree Days  
Heating Degree Days 4    
Growing Degree Days 10 (Base 50)    
Moisture  
Dew Point 60 °F    
Average Humidity 92    
Maximum Humidity 100    
Minimum Humidity 82    
Precipitation  
Precipitation 0.01 in - - ()
Sea Level Pressure  
Sea Level Pressure 29.90 in    
Wind  
Wind Speed 7 mph (East)    
Max Wind Speed 14 mph    
Max Gust Speed 20 mph    
Visibility 3 miles    
Events Fog , Rain , Thunderstorm    
Averages and records for this station are not official NWS values.
T = Trace of Precipitation, MM = Missing Value Source: NWS Daily Summary

Daily Weather History Graph

Daily Weather History Graph

Search for Another Location

Airport or City:

Trip Planner

Search our weather history database for the weather conditions in past years. The results will help you decide how hot, cold, wet, or windy it might be!

Date:

Astronomy

Jul. 07, 2013 Rise Set
Actual Time 5:24 AM CDT 9:05 PM CDT
Civil Twilight 4:45 AM CDT 9:43 PM CDT
Nautical Twilight 3:54 AM CDT 10:35 PM CDT
Astronomical Twilight 2:42 AM CDT 11:46 PM CDT
Moon 5:05 AM CDT (7/7) 8:23 PM CDT (7/7)
Length of Visible Light 16h 57m
Length of Day
15h 40m
Waning Crescent, 0% of the Moon is Illuminated
Jul 7
Waning Crescent
Jul 8
New
Jul 15
First Quarter
Jul 22
Full
Jul 29
Last Quarter

Hourly Weather History & Observations

Time (CDT) Temp. Dew Point Humidity Pressure Visibility Wind Dir Wind Speed Gust Speed Precip Events Conditions
12:16 AM 68.0 °F 66.2 °F 94% 29.86 in 1.5 mi East 8.1 mph - N/A Thunderstorm Overcast
12:36 AM 68.0 °F 66.2 °F 94% 29.86 in 2.0 mi East 9.2 mph - N/A Thunderstorm Overcast
12:56 AM 66.2 °F 66.2 °F 100% 29.85 in 2.0 mi East 5.8 mph - N/A Thunderstorm Overcast
1:16 AM 66.2 °F 64.4 °F 94% 29.84 in 1.5 mi ENE 9.2 mph - 0.01 in Rain , Thunderstorm Light Thunderstorms and Rain
1:36 AM 66.2 °F 64.4 °F 94% 29.85 in 4.0 mi East 3.5 mph - 0.01 in Thunderstorm Mostly Cloudy
1:55 AM 66.2 °F 64.4 °F 94% 29.84 in 2.5 mi East 4.6 mph - 0.01 in Thunderstorm Overcast
2:16 AM 64.4 °F 64.4 °F 100% 29.86 in 1.8 mi NE 4.6 mph - N/A Thunderstorm Overcast
2:36 AM 64.4 °F 62.6 °F 94% 29.85 in 2.5 mi ENE 5.8 mph - N/A Thunderstorm Overcast
2:55 AM 64.4 °F 62.6 °F 94% 29.86 in 1.5 mi East 5.8 mph - N/A   Overcast
3:16 AM 64.4 °F 62.6 °F 94% 29.87 in 0.5 mi East 8.1 mph - N/A Fog Fog
3:36 AM 64.4 °F 62.6 °F 94% 29.86 in 0.2 mi East 5.8 mph - N/A Fog Fog
3:55 AM 64.4 °F 62.6 °F 94% 29.86 in 0.2 mi East 4.6 mph - N/A Fog Fog
4:16 AM 64.4 °F 62.6 °F 94% 29.85 in 0.2 mi East 4.6 mph - N/A Fog Fog
4:36 AM 64.4 °F 62.6 °F 94% 29.86 in 0.2 mi East 3.5 mph - N/A Fog Fog
4:56 AM 64.4 °F 62.6 °F 94% 29.86 in 0.2 mi East 4.6 mph - N/A Fog Fog
5:16 AM 64.4 °F 62.6 °F 94% 29.87 in 0.2 mi East 4.6 mph - N/A Fog Fog
5:36 AM 64.4 °F 62.6 °F 94% 29.87 in 0.2 mi East 4.6 mph - N/A Fog Fog
5:56 AM 62.6 °F 62.6 °F 100% 29.87 in 0.2 mi ESE 4.6 mph - N/A Fog Fog
6:16 AM 62.6 °F 60.8 °F 94% 29.87 in 0.2 mi ESE 4.6 mph - N/A Fog Fog
6:36 AM 62.6 °F 60.8 °F 94% 29.86 in 0.2 mi ESE 5.8 mph - N/A Fog Fog
6:55 AM 62.6 °F 60.8 °F 94% 29.87 in 0.2 mi East 5.8 mph - N/A Fog Fog
7:16 AM 62.6 °F 60.8 °F 94% 29.87 in 0.2 mi East 4.6 mph - N/A Fog Fog
7:36 AM 62.6 °F 60.8 °F 94% 29.87 in 0.2 mi East 4.6 mph - N/A Fog Fog
7:55 AM 62.6 °F 60.8 °F 94% 29.87 in 0.2 mi East 6.9 mph - N/A Fog Fog
8:16 AM 62.6 °F 60.8 °F 94% 29.88 in 0.2 mi East 3.5 mph - N/A Fog Fog
8:36 AM 62.6 °F 60.8 °F 94% 29.88 in 0.2 mi East 5.8 mph - N/A Fog Fog
8:55 AM 62.6 °F 60.8 °F 94% 29.88 in 0.2 mi East 6.9 mph - N/A Fog Fog
9:16 AM 62.6 °F 60.8 °F 94% 29.88 in 0.2 mi East 6.9 mph - N/A Fog Fog
9:36 AM 62.6 °F 60.8 °F 94% 29.88 in 0.5 mi East 5.8 mph - N/A Fog Fog
9:56 AM 62.6 °F 60.8 °F 94% 29.88 in 1.0 mi East 5.8 mph - N/A   Overcast
10:16 AM 62.6 °F 60.8 °F 94% 29.89 in 0.8 mi East 5.8 mph - N/A   Overcast
10:36 AM 62.6 °F 60.8 °F 94% 29.89 in 2.5 mi East 6.9 mph - N/A   Overcast
10:55 AM 62.6 °F 60.8 °F 94% 29.89 in 4.0 mi East 5.8 mph - N/A   Overcast
11:16 AM 64.4 °F 62.6 °F 94% 29.90 in 7.0 mi East 6.9 mph - N/A   Overcast
11:35 AM 64.4 °F 62.6 °F 94% 29.90 in 5.0 mi East 5.8 mph - N/A   Overcast
11:56 AM - - N/A% - 5.0 mi ESE 8.1 mph - N/A   Overcast
12:16 PM 62.6 °F 62.6 °F 100% 29.91 in 7.0 mi East 9.2 mph - N/A   Overcast
12:35 PM 62.6 °F 60.8 °F 94% 29.91 in 7.0 mi East 6.9 mph - N/A   Overcast
12:56 PM 64.4 °F 60.8 °F 88% 29.91 in 10.0 mi East 9.2 mph - N/A   Overcast
1:16 PM 66.2 °F 62.6 °F 88% 29.91 in 10.0 mi East 5.8 mph - N/A   Scattered Clouds
1:36 PM 66.2 °F 60.8 °F 83% 29.91 in 10.0 mi ESE 10.4 mph - N/A   Clear
1:56 PM 66.2 °F 60.8 °F 83% 29.92 in 10.0 mi ESE 9.2 mph - N/A   Clear
2:16 PM 66.2 °F 60.8 °F 83% 29.92 in 10.0 mi East 9.2 mph 16.1 mph N/A   Mostly Cloudy
2:36 PM 66.2 °F 60.8 °F 83% 29.92 in 10.0 mi East 9.2 mph - N/A   Overcast
2:56 PM 66.2 °F 60.8 °F 83% 29.92 in 10.0 mi ENE 8.1 mph - N/A   Overcast
3:16 PM 66.2 °F 60.8 °F 83% 29.92 in 10.0 mi ENE 10.4 mph - N/A   Overcast
3:36 PM 64.4 °F 59.0 °F 83% 29.92 in 10.0 mi East 8.1 mph - N/A   Overcast
3:55 PM 62.6 °F 57.2 °F 82% 29.93 in 10.0 mi ENE 12.7 mph 16.1 mph N/A   Overcast
4:16 PM 62.6 °F 59.0 °F 88% 29.93 in 10.0 mi ENE 12.7 mph - N/A   Overcast
4:36 PM 62.6 °F 59.0 °F 88% 29.93 in 10.0 mi ENE 9.2 mph - N/A   Overcast
4:56 PM 62.6 °F 57.2 °F 82% 29.93 in 10.0 mi East 11.5 mph 16.1 mph N/A   Overcast
5:16 PM 60.8 °F 57.2 °F 88% 29.93 in 5.0 mi East 11.5 mph - N/A   Overcast
5:36 PM 62.6 °F 59.0 °F 88% 29.92 in 5.0 mi East 13.8 mph 18.4 mph N/A   Overcast
5:56 PM 60.8 °F 59.0 °F 94% 29.92 in 5.0 mi East 9.2 mph 16.1 mph N/A   Overcast
6:16 PM 60.8 °F 57.2 °F 88% 29.93 in 5.0 mi East 6.9 mph 19.6 mph N/A   Overcast
6:36 PM 60.8 °F 57.2 °F 88% 29.93 in 4.0 mi East 9.2 mph 17.3 mph N/A   Overcast
6:55 PM 60.8 °F 57.2 °F 88% 29.93 in 2.0 mi East 9.2 mph - N/A   Overcast
7:16 PM 60.8 °F 57.2 °F 88% 29.93 in 2.0 mi East 10.4 mph - N/A   Overcast
7:36 PM 59.0 °F 57.2 °F 94% 29.94 in 2.0 mi East 9.2 mph - N/A   Overcast
7:55 PM 57.2 °F 55.4 °F 94% 29.94 in 0.5 mi East 11.5 mph - N/A Fog Fog
8:16 PM 57.2 °F 55.4 °F 94% 29.95 in 0.2 mi East 12.7 mph 19.6 mph N/A Fog Fog
8:36 PM 55.4 °F 55.4 °F 100% 29.96 in 1.0 mi East 12.7 mph 16.1 mph N/A   Overcast
8:55 PM 55.4 °F 53.6 °F 94% 29.96 in 1.0 mi East 9.2 mph 17.3 mph N/A   Overcast
9:16 PM 55.4 °F 53.6 °F 94% 29.96 in 1.2 mi ENE 11.5 mph 16.1 mph N/A   Overcast
9:36 PM 55.4 °F 53.6 °F 94% 29.96 in 1.0 mi ENE 9.2 mph - N/A   Overcast
9:55 PM 55.4 °F 53.6 °F 94% 29.98 in 0.8 mi East 8.1 mph - N/A   Overcast
10:16 PM 55.4 °F 53.6 °F 94% 29.99 in 0.8 mi East 6.9 mph - N/A   Overcast
10:36 PM 55.4 °F 53.6 °F 94% 29.99 in 1.5 mi East 6.9 mph - N/A   Overcast
10:55 PM 53.6 °F 53.6 °F 100% 29.98 in 0.5 mi East 10.4 mph 19.6 mph N/A Fog Fog
11:16 PM 53.6 °F 51.8 °F 94% 29.96 in 0.2 mi NE 9.2 mph 16.1 mph N/A Fog Fog
11:36 PM 53.6 °F 51.8 °F 94% 29.95 in 0.5 mi ENE 11.5 mph - N/A Fog Fog
11:56 PM 53.6 °F 51.8 °F 94% 29.96 in 1.2 mi NE 5.8 mph - N/A   Overcast